When you browse on this site, cookies collect data to enhance your experience and personalize the content and advertising you see.
Visit our Privacy Policy to learn more. By continuing to use the site, you agree to this use of cookies and data.
  • In Czech Republic
  • List of Countries
  • For 7 days
  • Water Temperature
  • Weather Map
  • Weather Widgets
  • user-avatar
    Login

    Hourly Weather San Andres

    Today, 7 December, Saturday

    Time Temperature Precipitation Wind Pressure Humidity
    00:00 +13°C° 0 mm 2 mps 590 mmHg 65%
    01:00 +13°C° 0 mm 2 mps 589 mmHg 65%
    02:00 +12°C° 0 mm 2 mps 589 mmHg 66%
    03:00 +12°C° 0 mm 2 mps 589 mmHg 66%
    04:00 +12°C° 0 mm 2 mps 589 mmHg 67%
    05:00 +13°C° 0 mm 1 mps 590 mmHg 66%
    06:00 +14°C° 0 mm 1 mps 590 mmHg 65%
    07:00 +14°C° 0 mm 1 mps 591 mmHg 64%
    08:00 +16°C° 0 mm 1 mps 592 mmHg 60%
    09:00 +19°C° 0 mm 1 mps 593 mmHg 57%
    10:00 +21°C° 0 mm 1 mps 594 mmHg 53%
    11:00 +22°C° 0 mm 1 mps 593 mmHg 54%
    12:00 +21°C° 0 mm 2 mps 593 mmHg 55%
    13:00 +23°C° 0 mm 2 mps 592 mmHg 56%
    14:00 +21°C° 0.2 mm 2 mps 592 mmHg 63%
    15:00 +21°C° 0.2 mm 1 mps 591 mmHg 70%
    16:00 +20°C° 0.2 mm 1 mps 590 mmHg 76%
    17:00 +19°C° 0.4 mm 1 mps 590 mmHg 81%
    18:00 +16°C° 0.4 mm 1 mps 590 mmHg 87%
    19:00 +15°C° 0.4 mm 1 mps 589 mmHg 92%
    20:00 +14°C° 0.1 mm 1 mps 590 mmHg 91%
    21:00 +14°C° 0.1 mm 1 mps 590 mmHg 91%
    22:00 +13°C° 0.1 mm 1 mps 590 mmHg 90%
    23:00 +13°C° 0 mm 1 mps 590 mmHg 89%

    Tomorrow, 8 December, Sunday

    Time Temperature Precipitation Wind Pressure Humidity
    00:00 +13°C° 0 mm 1 mps 589 mmHg 88%
    01:00 +13°C° 0 mm 1 mps 589 mmHg 86%
    02:00 +12°C° 0 mm 0 mps 589 mmHg 86%
    03:00 +11°C° 0 mm 0 mps 588 mmHg 86%
    04:00 +11°C° 0 mm 0 mps 588 mmHg 85%
    05:00 +12°C° 0 mm 0 mps 589 mmHg 83%
    06:00 +13°C° 0 mm 0 mps 590 mmHg 80%
    07:00 +14°C° 0 mm 0 mps 591 mmHg 77%
    08:00 +18°C° 0 mm 1 mps 591 mmHg 74%
    09:00 +19°C° 0 mm 1 mps 592 mmHg 70%
    10:00 +21°C° 0 mm 1 mps 593 mmHg 66%
    11:00 +21°C° 0.2 mm 1 mps 592 mmHg 68%
    12:00 +20°C° 0.2 mm 2 mps 592 mmHg 70%
    13:00 +20°C° 0.2 mm 2 mps 591 mmHg 71%
    14:00 +20°C° 0.6 mm 2 mps 590 mmHg 77%
    15:00 +19°C° 0.6 mm 2 mps 590 mmHg 83%
    16:00 +18°C° 0.6 mm 2 mps 589 mmHg 89%
    17:00 +18°C° 0.9 mm 1 mps 589 mmHg 91%
    18:00 +16°C° 0.9 mm 1 mps 589 mmHg 93%
    19:00 +16°C° 0.9 mm 1 mps 590 mmHg 95%
    20:00 +15°C° 1.6 mm 1 mps 590 mmHg 95%
    21:00 +15°C° 1.6 mm 1 mps 590 mmHg 95%
    22:00 +15°C° 1.6 mm 1 mps 590 mmHg 95%
    23:00 +15°C° 1.2 mm 1 mps 590 mmHg 94%

    Day after tomorrow, 9 December, Monday

    Time Temperature Precipitation Wind Pressure Humidity
    00:00 +14°C° 1.2 mm 1 mps 590 mmHg 94%
    01:00 +13°C° 1.2 mm 0 mps 590 mmHg 93%
    02:00 +13°C° 0.1 mm 0 mps 589 mmHg 92%
    03:00 +13°C° 0.1 mm 0 mps 589 mmHg 92%
    04:00 +13°C° 0.1 mm 1 mps 589 mmHg 92%
    05:00 +14°C° 0 mm 1 mps 589 mmHg 91%
    06:00 +14°C° 0 mm 1 mps 590 mmHg 90%
    07:00 +15°C° 0 mm 1 mps 590 mmHg 89%
    08:00 +16°C° 0 mm 1 mps 591 mmHg 85%
    09:00 +19°C° 0 mm 1 mps 592 mmHg 80%
    10:00 +20°C° 0 mm 1 mps 593 mmHg 76%
    11:00 +21°C° 0.3 mm 1 mps 592 mmHg 74%
    12:00 +20°C° 0.3 mm 2 mps 592 mmHg 73%
    13:00 +21°C° 0.3 mm 2 mps 591 mmHg 72%
    14:00 +20°C° 0.6 mm 2 mps 591 mmHg 74%
    15:00 +20°C° 0.6 mm 1 mps 590 mmHg 77%
    16:00 +20°C° 0.6 mm 1 mps 589 mmHg 79%
    17:00 +17°C° 0.8 mm 2 mps 589 mmHg 82%
    18:00 +16°C° 0.8 mm 2 mps 589 mmHg 84%
    19:00 +14°C° 0.8 mm 2 mps 589 mmHg 87%
    20:00 +14°C° 0.2 mm 2 mps 589 mmHg 78%
    21:00 +13°C° 0.2 mm 2 mps 589 mmHg 69%
    22:00 +12°C° 0.2 mm 2 mps 589 mmHg 61%
    23:00 +12°C° 0 mm 2 mps 588 mmHg 60%

    10 December, Tuesday

    Time Temperature Precipitation Wind Pressure Humidity
    00:00 +12°C° 0 mm 2 mps 588 mmHg 60%
    01:00 +12°C° 0 mm 2 mps 588 mmHg 60%
    02:00 +12°C° 0 mm 2 mps 588 mmHg 60%
    03:00 +12°C° 0 mm 2 mps 588 mmHg 60%
    04:00 +10°C° 0 mm 2 mps 587 mmHg 60%
    05:00 +12°C° 0 mm 2 mps 588 mmHg 60%
    06:00 +13°C° 0 mm 2 mps 589 mmHg 61%
    07:00 +14°C° 0 mm 2 mps 590 mmHg 61%
    08:00 +16°C° 0 mm 2 mps 591 mmHg 56%
    09:00 +19°C° 0 mm 1 mps 592 mmHg 51%
    10:00 +21°C° 0 mm 1 mps 593 mmHg 46%
    11:00 +22°C° 0 mm 1 mps 592 mmHg 48%
    12:00 +23°C° 0 mm 2 mps 592 mmHg 49%
    13:00 +23°C° 0 mm 2 mps 592 mmHg 51%
    14:00 +21°C° 0 mm 2 mps 591 mmHg 57%
    15:00 +21°C° 0 mm 2 mps 590 mmHg 62%
    16:00 +20°C° 0 mm 2 mps 589 mmHg 68%
    17:00 +19°C° 0 mm 1 mps 589 mmHg 75%
    18:00 +16°C° 0 mm 1 mps 589 mmHg 83%
    19:00 +14°C° 0 mm 1 mps 588 mmHg 90%
    20:00 +14°C° 0 mm 1 mps 589 mmHg 85%
    21:00 +13°C° 0 mm 1 mps 589 mmHg 79%
    22:00 +13°C° 0 mm 2 mps 589 mmHg 73%
    23:00 +13°C° 0 mm 2 mps 589 mmHg 70%

    11 December, Wednesday

    Time Temperature Precipitation Wind Pressure Humidity
    00:00 +12°C° 0 mm 2 mps 588 mmHg 67%
    01:00 +12°C° 0 mm 2 mps 588 mmHg 64%
    02:00 +12°C° 0 mm 2 mps 588 mmHg 67%
    03:00 +12°C° 0 mm 2 mps 588 mmHg 70%
    04:00 +12°C° 0 mm 2 mps 587 mmHg 74%
    05:00 +13°C° 0 mm 1 mps 588 mmHg 75%
    06:00 +13°C° 0 mm 1 mps 589 mmHg 75%
    07:00 +14°C° 0 mm 1 mps 590 mmHg 76%
    08:00 +16°C° 0 mm 1 mps 591 mmHg 71%
    09:00 +19°C° 0 mm 1 mps 592 mmHg 65%
    10:00 +21°C° 0 mm 1 mps 593 mmHg 59%
    11:00 +21°C° 0.1 mm 1 mps 592 mmHg 61%
    12:00 +21°C° 0.1 mm 2 mps 592 mmHg 62%
    13:00 +21°C° 0.1 mm 2 mps 591 mmHg 64%
    14:00 +20°C° 0.3 mm 2 mps 590 mmHg 70%
    15:00 +19°C° 0.3 mm 2 mps 590 mmHg 76%
    16:00 +20°C° 0.3 mm 1 mps 589 mmHg 82%
    17:00 +18°C° 0.6 mm 1 mps 589 mmHg 87%
    18:00 +16°C° 0.6 mm 1 mps 589 mmHg 92%
    19:00 +14°C° 0.6 mm 0 mps 589 mmHg 96%
    20:00 +14°C° 1.2 mm 0 mps 589 mmHg 95%
    21:00 +14°C° 1.2 mm 0 mps 590 mmHg 94%
    22:00 +14°C° 1.2 mm 0 mps 590 mmHg 92%
    23:00 +13°C° 0.1 mm 0 mps 589 mmHg 92%

    12 December, Thursday

    Time Temperature Precipitation Wind Pressure Humidity
    00:00 +13°C° 0.1 mm 0 mps 589 mmHg 92%
    01:00 +12°C° 0.1 mm 0 mps 588 mmHg 92%
    02:00 +12°C° 0 mm 0 mps 588 mmHg 92%
    03:00 +12°C° 0 mm 0 mps 588 mmHg 92%
    04:00 +12°C° 0 mm 0 mps 588 mmHg 92%
    05:00 +13°C° 0 mm 0 mps 589 mmHg 91%
    06:00 +13°C° 0 mm 0 mps 589 mmHg 89%
    07:00 +14°C° 0 mm 0 mps 590 mmHg 88%
    08:00 +15°C° 0.1 mm 0 mps 590 mmHg 85%
    09:00 +18°C° 0.1 mm 1 mps 591 mmHg 83%
    10:00 +19°C° 0.1 mm 1 mps 592 mmHg 80%
    11:00 +20°C° 0.3 mm 1 mps 591 mmHg 79%
    12:00 +20°C° 0.3 mm 1 mps 591 mmHg 78%
    13:00 +20°C° 0.3 mm 2 mps 590 mmHg 77%
    14:00 +19°C° 0.4 mm 2 mps 589 mmHg 80%
    15:00 +19°C° 0.4 mm 2 mps 589 mmHg 83%
    16:00 +18°C° 0.4 mm 2 mps 588 mmHg 87%
    17:00 +18°C° 0.4 mm 1 mps 588 mmHg 90%
    18:00 +16°C° 0.4 mm 1 mps 588 mmHg 94%
    19:00 +14°C° 0.4 mm 0 mps 588 mmHg 98%
    20:00 +14°C° 0.2 mm 0 mps 589 mmHg 97%
    21:00 +14°C° 0.2 mm 0 mps 589 mmHg 96%
    22:00 +14°C° 0.2 mm 0 mps 590 mmHg 95%
    23:00 +14°C° 0.1 mm 0 mps 589 mmHg 95%
    Show more